Theta_e
288 288 288 288 287 287 286 285 285 286 286 286 286 285 285 284 284 284 283 282 281 281 281 280 280 282 282 282 283 283 283 283 280 283 286 286 285 285 284 283 282 281 282
286 285 285 285 284 284 283 284 285 284 284 284 283 283 283 282 281 281 280 280 279 279 279 279 279 281 280 281 281 280 280 281 280 278 280 280 281 279 279 277 278 278 278
283 282 282 282 281 281 282 282 282 282 281 280 280 279 279 279 279 279 279 278 277 277 277 277 278 277 277 278 278 277 277 278 277 276 275 277 277 277 276 276 276 277 277
281 280 279 280 280 280 280 280 281 281 280 280 279 278 277 277 277 277 277 277 277 277 277 277 277 278 277 277 277 276 276 276 276 275 275 274 275 276 274 273 272 274 274
278 278 278 279 279 279 279 279 279 279 280 280 279 279 279 278 277 276 276 275 275 276 276 277 276 277 277 277 276 274 274 274 274 273 272 272 272 271 270 271 271 272 272
278 277 278 277 277 277 277 278 278 278 278 278 278 278 278 279 279 278 276 274 274 274 273 275 276 275 276 277 277 275 274 272 271 271 270 269 269 269 269 269 269 268 266
277 277 277 276 276 276 276 276 276 276 278 278 278 278 277 278 279 278 276 275 273 272 272 272 273 274 275 275 275 274 273 273 273 272 269 268 267 268 268 268 267 266 266
275 275 276 275 275 275 274 274 274 275 275 275 277 278 278 278 278 277 276 274 274 273 272 271 271 272 274 274 273 271 270 270 271 271 269 268 268 269 268 267 267 266 266
273 273 273 274 273 273 273 273 274 274 274 274 275 275 276 277 279 277 275 273 272 272 272 271 270 271 274 274 271 269 268 269 272 271 270 269 269 269 268 266 263 261 260
272 272 273 273 272 272 272 272 273 273 272 273 272 273 274 274 278 278 276 274 271 270 271 270 271 270 273 273 269 267 265 267 264 264 263 264 265 265 267 264 263 260 259
272 272 272 272 271 271 271 271 271 270 270 270 271 272 272 273 275 277 277 273 272 270 269 268 267 270 271 270 270 265 266 267 262 261 261 262 263 263 263 263 263 261 259
271 271 271 271 272 271 271 271 271 270 269 269 269 270 271 272 274 275 275 274 273 269 266 266 265 268 268 267 265 267 266 263 261 260 259 260 260 261 261 261 261 261 262
268 268 269 270 271 271 271 270 270 270 270 269 269 268 269 272 273 274 273 271 270 267 266 265 265 265 264 263 263 264 261 260 259 257 258 259 260 260 260 260 261 262 261
266 267 267 268 269 270 271 271 271 270 269 269 268 268 269 271 271 272 270 268 269 267 262 260 262 262 262 261 260 260 260 259 258 258 258 259 260 259 259 260 259 260 259
266 266 267 266 267 267 268 270 269 270 271 270 269 269 268 268 270 272 269 266 266 265 258 259 258 258 258 258 258 258 258 258 258 258 257 257 257 258 258 260 259 258 257
266 266 265 266 266 266 266 267 269 270 270 271 271 271 270 271 271 270 268 266 266 263 257 256 256 256 256 256 256 256 257 257 257 256 257 257 256 256 257 258 258 258 257
265 264 264 265 264 264 264 263 263 265 265 267 269 269 269 269 268 268 266 263 263 259 256 256 255 255 255 255 256 255 255 256 256 257 256 256 256 256 256 257 257 258 258
260 260 264 263 263 263 262 261 261 260 261 262 262 265 266 266 266 265 263 259 257 257 256 255 255 255 255 255 255 255 255 256 256 256 255 256 256 256 256 256 257 257 257
264 263 262 262 261 259 261 261 261 261 260 260 261 262 260 262 262 261 260 256 254 255 255 255 255 255 255 255 255 255 255 254 254 254 255 256 256 256 256 257 257 257 257
261 258 260 262 261 261 261 261 260 260 260 259 259 259 260 260 258 256 256 256 255 255 255 255 256 256 255 255 255 255 254 255 255 255 256 256 257 257 257 257 257 257 258
262 261 257 261 261 260 260 260 259 259 258 258 258 257 265 257 256 256 256 256 255 255 255 255 255 255 255 255 255 255 254 255 255 255 256 256 257 256 257 258 258 259 260
262 262 262 261 260 261 259 258 258 257 258 257 257 257 260 257 256 256 256 256 256 256 256 255 255 256 256 255 255 254 254 254 255 256 256 256 256 257 257 258 258 260 260
262 262 261 260 258 256 258 258 257 258 258 257 257 256 257 256 256 256 256 256 256 255 256 255 255 255 256 257 257 256 254 254 256 256 255 255 256 257 258 259 261 260 260
261 261 261 260 258 258 258 259 258 256 255 256 256 256 256 256 256 255 255 256 255 255 256 256 255 255 255 256 257 258 258 258 257 257 256 256 256 258 263 261 260 260 259
260 260 260 261 260 259 259 260 259 257 256 256 257 256 256 256 256 256 256 255 254 254 255 255 256 256 256 256 256 256 258 258 259 261 264 266 266 262 262 261 260 259 259
260 260 261 260 260 259 259 259 258 258 256 257 256 256 256 255 255 255 255 254 254 254 254 256 256 256 257 257 258 260 261 264 266 270 267 265 263 262 262 261 260 259 259
Wind_Speed
20 18 18 17 26 18 18 18 16 16 19 16 15 20 20 18 17 18 17 17 18 15 14 14 14 12 9 8 7 7 7 6 5 7 7 9 11 11 11 11 12 12 11
19 19 19 19 23 19 20 20 18 20 19 18 20 20 21 19 18 18 18 15 16 16 14 14 14 9 12 11 8 10 9 8 8 11 11 9 11 13 12 13 12 11 12
18 21 21 21 23 22 20 21 21 21 21 21 20 20 19 18 17 17 16 16 16 14 13 13 13 12 12 9 8 8 9 7 7 7 9 9 9 10 11 13 13 14 11
20 21 22 22 21 20 19 20 22 20 20 20 20 19 17 16 15 14 14 13 13 11 11 12 13 14 13 13 10 10 9 10 9 9 10 10 10 12 12 13 13 12 13
21 21 21 19 20 20 20 20 21 20 19 18 18 18 16 15 11 12 12 13 12 12 12 11 12 14 19 16 10 12 12 10 9 10 10 11 11 12 14 12 14 14 14
21 21 18 20 20 19 18 19 19 18 18 17 17 16 15 11 23 22 15 11 12 13 12 11 11 14 17 20 19 18 15 12 12 10 10 13 16 14 13 13 14 14 17
19 17 18 18 19 17 17 17 17 17 15 17 16 16 16 15 23 21 19 11 11 11 12 13 12 11 15 16 18 16 15 16 15 13 13 14 17 17 17 17 17 17 16
19 18 17 17 18 16 16 16 16 14 15 14 14 15 14 14 22 19 16 12 11 11 12 12 13 14 16 18 16 14 14 13 12 9 14 15 16 17 16 16 17 18 16
18 17 15 14 15 14 15 15 13 12 13 13 12 13 14 15 22 19 13 10 10 10 8 10 12 15 22 24 16 15 14 13 14 19 23 24 24 24 20 13 11 13 15
16 15 14 14 14 14 14 13 12 12 13 11 12 12 12 11 21 21 14 8 9 8 8 10 14 19 23 24 16 14 14 16 14 15 14 17 18 17 22 14 12 13 13
14 14 14 15 14 14 13 12 12 11 10 10 9 8 7 12 13 19 20 9 9 9 9 10 11 23 23 23 21 12 16 17 15 12 11 11 12 12 12 12 14 12 13
12 13 13 11 10 10 10 11 10 9 9 9 7 8 9 8 13 18 19 20 20 8 10 10 12 23 22 20 16 22 22 16 10 10 11 11 12 12 12 13 16 15 14
11 9 10 9 10 9 10 9 8 8 7 7 8 7 7 7 8 18 19 21 18 8 10 15 19 19 18 13 18 19 14 9 9 10 11 11 12 12 15 15 15 17 18
9 10 9 9 10 9 8 8 9 9 7 7 7 7 7 8 9 9 10 10 13 11 12 8 12 12 12 11 9 10 8 8 9 10 11 11 11 11 12 12 14 14 15
9 9 8 8 8 8 9 8 6 8 8 6 5 5 6 8 9 13 12 8 9 11 7 6 7 8 9 10 10 10 9 9 9 10 11 11 12 12 12 12 13 14 15
9 7 6 6 6 5 4 5 11 11 12 10 10 8 5 10 13 15 16 15 15 14 4 5 7 8 9 9 10 11 10 11 10 11 11 11 12 13 14 14 14 14 17
9 6 5 5 5 5 5 6 5 5 6 10 11 12 14 12 14 15 16 13 13 10 6 6 7 8 9 9 9 10 11 10 12 10 11 12 12 13 16 15 15 16 18
7 5 5 5 4 4 3 3 2 3 5 4 6 9 13 14 13 15 16 9 7 6 5 6 7 8 9 9 9 10 11 11 10 11 11 12 12 13 15 16 16 18 19
4 4 4 3 3 2 2 2 3 4 5 5 6 5 7 13 10 12 11 5 6 6 6 7 7 8 9 9 10 10 11 11 11 11 12 12 13 13 16 16 18 25 25
4 4 3 2 1 2 3 3 3 4 4 4 5 6 5 6 7 7 6 5 5 6 6 8 8 8 9 10 10 10 10 11 11 11 12 13 13 13 15 18 18 20 20
3 3 2 2 1 1 2 2 2 3 3 4 4 5 13 5 5 6 6 6 6 7 8 8 9 9 9 9 10 10 10 11 11 12 12 13 15 15 16 16 18 19 21
4 3 2 1 1 1 2 2 3 3 4 4 5 5 11 4 5 6 6 7 7 7 7 8 9 9 9 9 10 11 11 13 13 12 14 15 15 15 16 17 19 20 22
3 3 3 1 1 2 2 2 3 4 4 5 5 6 5 5 5 6 7 7 7 8 8 8 9 9 9 9 9 10 11 13 13 13 15 16 16 17 16 17 20 21 22
4 3 3 2 1 2 3 3 4 4 5 5 5 5 5 5 6 7 7 7 8 9 8 8 8 13 12 11 10 11 12 13 12 15 20 16 17 19 17 19 20 26 23
5 4 3 3 3 2 3 4 4 4 5 5 5 5 5 6 6 6 7 7 7 9 10 10 9 12 15 18 19 20 20 22 19 22 15 15 18 22 19 18 22 23 28
5 5 4 3 3 3 3 4 5 5 5 5 5 5 5 6 6 7 7 7 8 9 11 9 12 17 18 15 18 21 24 25 23 26 13 13 15 16 17 22 29 21 26
Wind_Direction
72 73 69 72 70 63 63 59 49 58 57 63 61 63 59 56 55 61 59 57 59 54 49 48 44 35 37 31 30 27 21 11 333 320 312 324 328 330 332 334 322 311 318
69 70 65 64 72 61 64 62 59 60 59 59 59 63 62 60 61 65 66 60 60 56 48 49 42 33 32 24 24 17 14 2 347 327 329 331 327 335 328 324 315 313 316
68 70 66 62 71 66 60 70 67 64 64 62 60 61 62 61 64 63 64 61 59 55 47 47 41 36 31 18 20 15 7 352 346 325 314 317 322 319 321 311 313 310 309
68 67 67 65 64 69 67 65 69 67 66 64 64 66 63 61 58 57 58 61 62 57 53 46 39 33 27 12 10 6 360 344 341 329 322 320 320 327 319 317 312 315 310
70 68 68 71 70 67 65 65 66 62 63 63 64 62 59 58 55 55 56 54 50 45 39 38 38 22 23 19 6 360 354 346 336 333 324 320 326 326 323 324 310 312 310
70 69 69 70 68 66 64 62 65 67 64 65 65 65 65 62 61 59 57 53 47 40 32 25 24 19 6 3 6 358 353 343 335 330 325 323 318 320 320 315 311 310 310
71 73 72 72 71 68 68 66 66 65 67 66 67 65 59 53 52 52 50 51 48 38 32 20 12 10 358 354 351 348 344 336 330 323 325 321 316 318 315 311 308 304 299
68 68 66 66 68 68 70 67 66 62 62 60 56 59 62 58 49 44 44 41 38 32 30 20 6 358 355 347 346 340 338 327 327 332 320 318 310 309 311 310 307 302 295
63 62 62 64 68 65 64 63 63 66 66 63 56 52 52 49 43 45 33 36 26 21 16 13 5 352 347 346 342 336 329 321 336 331 323 315 317 318 313 313 310 308 304
66 67 65 66 69 72 75 74 71 67 66 66 61 53 43 41 38 29 37 22 17 5 5 0 359 344 348 346 341 341 324 331 348 334 323 320 322 318 319 315 312 304 304
74 75 72 72 72 73 72 66 67 70 70 66 66 58 46 31 25 23 21 24 14 4 359 349 350 342 346 345 347 333 332 343 332 325 321 317 317 316 312 310 307 301 297
80 75 70 68 73 72 71 68 61 65 64 59 49 43 40 23 5 19 15 23 7 6 359 347 342 344 346 343 347 339 347 341 332 328 322 320 316 313 311 308 301 289 276
77 73 80 75 72 70 68 66 64 59 56 48 39 32 19 7 15 15 16 14 7 17 356 346 340 344 345 344 340 341 346 334 332 323 317 313 314 309 303 298 296 290 282
89 78 70 65 64 56 62 50 47 42 39 41 32 23 9 14 13 7 17 5 358 359 355 343 338 342 343 342 334 342 334 335 325 315 315 311 309 308 304 303 301 302 296
80 77 72 67 60 64 50 48 54 44 36 39 34 14 1 10 8 7 12 2 354 360 356 337 346 351 348 347 342 340 336 333 324 323 316 311 309 308 303 304 299 300 294
96 82 67 70 62 57 54 74 49 49 39 35 31 29 33 5 10 8 12 7 4 8 5 355 350 349 343 337 333 329 329 327 323 318 308 306 305 304 303 305 300 300 298
98 95 85 67 57 47 38 30 20 13 35 26 21 22 21 13 12 10 10 8 7 21 13 356 347 338 328 323 322 323 319 316 311 305 306 302 300 300 305 305 303 303 302
95 72 82 70 60 56 51 50 22 1 357 6 360 13 11 11 15 12 12 3 1 7 356 340 332 326 321 321 320 317 313 313 315 311 304 301 300 300 303 303 305 306 304
105 96 93 92 76 58 35 30 15 5 359 351 350 1 4 356 6 7 11 8 347 342 334 324 320 318 320 320 315 310 309 306 305 298 300 301 301 300 299 301 302 306 305
103 97 74 92 85 41 24 15 5 355 346 348 349 346 328 347 358 351 349 339 326 319 319 317 318 321 320 315 311 310 306 303 302 300 299 299 298 297 298 300 302 304 304
138 140 114 153 77 33 5 0 346 332 339 339 334 328 342 355 327 320 320 325 322 320 317 314 320 320 315 313 309 308 302 297 295 294 295 297 300 299 298 297 298 299 304
179 161 157 74 9 347 354 323 323 325 329 328 325 316 334 317 315 317 321 322 319 311 303 308 309 307 306 305 306 303 298 292 292 295 296 296 295 295 297 300 301 305 308
184 168 165 165 285 296 290 309 320 324 323 316 315 313 318 316 315 317 318 315 315 312 307 304 302 298 298 296 295 287 282 285 289 292 290 294 296 298 302 299 309 308 308
192 187 191 193 242 281 291 308 310 292 293 300 304 305 305 309 309 312 311 312 312 309 307 302 291 292 298 301 300 291 282 281 282 284 287 288 292 297 307 312 308 309 305
199 202 207 216 235 267 293 292 293 291 290 293 301 301 305 304 308 312 312 310 308 310 306 303 295 298 301 306 299 295 292 293 291 287 290 298 317 317 313 311 311 308 305
202 212 216 217 236 249 265 283 288 288 286 295 299 298 298 302 304 306 306 308 312 307 302 298 300 302 307 306 300 302 303 306 310 317 328 321 321 320 319 316 314 309 307